Regional Weather Roundup
Issued by NWS Albany, NY

Home | Current Version | Previous Version | Graphics & Text | Print | Product List | Glossary On
Versions: 1 2 3 4 5 6 7 8 9 10 11 12 13 14 15 16 17 18 19 20 21 22 23 24 25 26 27
000
ASUS41 KALY 222010
RWRALY

NEW YORK STATE HOURLY WEATHER ROUNDUP
NATIONAL WEATHER SERVICE ALBANY NY
400 PM EDT FRI SEP 22 2017

NOTE: "FAIR" INDICATES FEW OR NO CLOUDS BELOW 12,000 FEET WITH NO
SIGNIFICANT WEATHER AND/OR NO OBSTRUCTIONS TO VISIBILITY.

NYZ032-033-038>043-046>054-057>066-NYZ062>081-082-084-222100-
EAST


CITY           SKY/WX    TMP DP  RH WIND       PRES   REMARKS
ALBANY         CLOUDY    78  51  38 N9        30.05F
GLENS FALLS    SUNNY     78  47  33 E9        30.05F
POUGHKEEPSIE   MOSUNNY   79  54  41 N15       29.99S
NEWBURGH       MOSUNNY   79  55  44 NE16G23   30.01F
MONTGOMERY     MOSUNNY   80  55  42 NE14      29.99F
WHITE PLAINS   MOSUNNY   78  55  44 NW20      29.95F
ISLIP          PTSUNNY   79  62  56 N14G24    29.90S
NEW YORK CITY  MOSUNNY   80  57  45 N17G24    29.94S
CENTRAL PARK   SUNNY     81  56  42 N9G20     29.98S
$$

NYZ005>009-017-018-044>046-055-056-222100-
CENTRAL


CITY           SKY/WX    TMP DP  RH WIND       PRES   REMARKS
FULTON         SUNNY     79  60  52 NW8       30.09F
SYRACUSE       PTSUNNY   80  56  43 VRB5      30.06F
ROME           SUNNY     79  58  48 W6        30.07F
ELMIRA         MOSUNNY   79  58  48 NE7       30.09S
BINGHAMTON     SUNNY     77  49  37 N15       30.10S
MONTICELLO     SUNNY     79  48  33 N10       30.05F
$$

NYZ026>034-041>043-087-222100-
NORTH


CITY           SKY/WX    TMP DP  RH WIND       PRES   REMARKS
WATERTOWN      SUNNY     80  56  43 N10       30.07F
FORT DRUM      NOT AVBL
OGDENSBURG     FAIR      80  53  39 NE8       30.09F
MASSENA        SUNNY     78  54  43 NE6       30.10F
SARANAC LAKE   SUNNY     79  34  19 NE10      30.11F
PLATTSBURGH    SUNNY     75  52  44 NE7       30.08F
$$

NYZ001>004-010>016-019>021-085-222100-
WEST


CITY           SKY/WX    TMP DP  RH WIND       PRES   REMARKS
NIAGARA FALLS  SUNNY     84  56  38 NE8       30.10F
BUFFALO        PTSUNNY   81  51  35 NE7       30.11F
DUNKIRK        MOSUNNY   78  57  48 NE8       30.12F
JAMESTOWN      CLOUDY    79  57  46 NW8       30.15F
WELLSVILLE     MOSUNNY   77  54  44 N6        30.17F
ROCHESTER      MOSUNNY   79  50  36 N7        30.11F
PENN YAN       MOSUNNY   77  54  44 NW8       30.12F
$$

             KEY
       WCI = WIND CHILL INDEX
       VSB = VISIBILITY
       HX  = HEAT INDEX
$$




USA.gov is the U.S. government's official web portal to all federal, state and local government web resources and services.